sat.trackr.live / text

‹ back to catalog

STARLINK-36851

NORAD 67943 · 2026-037M

PAYLOAD ACTIVE UNKNOWN

§ Identity

Operator
Country
US
Launch date
2026-02-24
Launch site
AFETR
Launch vehicle
Mass (kg)
RCS (m²)

Purposes: comms

External: N2YO · Heavens-Above · Gunter

§ Orbital elements

Epoch: 2026-09-19T02:48:16.163136Z

Period
94.27 min
Inclination
43.0001°
Eccentricity
0.0002011
Mean motion
15.27591912 rev/d
Perigee alt
481.6 km
Apogee alt
484.4 km
Semi-major
6,861.2 km
B*
4.1656e-4
RAAN
178.2801°
Arg perigee
254.4540°
Mean anomaly
105.6090°
Rev number
3,292

§ Raw data

STARLINK-368511 67943U 26037M   26262.11685374  .00011222  00000+0  41656-3 0  99922 67943  43.0001 178.2801 0002011 254.4540 105.6090 15.27591912 32923

JSON: /api/v1/satellites/67943 · /tle

For live sub-satellite position, see the globe view (requires WebGL).

§ Visibility from observer

Set your observer location to see the next 7 days of passes ≥ 10°. The values pass through the URL so the page stays shareable.

No JS? Fill the form by hand. The geolocation button needs JavaScript.